Location: Seattle
(47.6064°N, 122.3308°W)
Time: 01:40:58
(UTC-08:00)

Envisat - Pass Details

Date: 03 November 2020
Orbit: 764 x 766 km, 98.1° (Epoch: 03 December)

Event Time Altitude Azimuth Distance (km) Brightness Sun altitude
Rises 17:36:38 0° 180° (S) 3,220 6.4 -8.7°
Reaches altitude 10° 17:39:00 10° 185° (S) 2,298 5.7 -9.1°
Maximum altitude 17:43:55 50° 261° (W) 976 4.1 -9.9°
Drops below altitude 10° 17:48:52 10° 337° (NNW) 2,314 5.6 -10.7°
Sets 17:51:15 0° 342° (NNW) 3,245 6.3 -11.1°
